Find Globalstar M001

NORAD ID: 25162 Int'l Des: 1998-008 Owner: GLOBT Country: US Constellation: globalstar operational
LEOCIRCULAR

当前视图

正在加载3D地球...

About Globalstar M001

Globalstar M001 (NORAD 25162) is a globalstar constellation satellite launched Feb 14, 1998 by GLOBT of US. It operates in LEO, CIRCULAR orbit with a mass of 450.00 kg.

关于 Globalstar M001

正在加载描述...

即将过境

Passes for default location (London). Set your location on the main map for personalized predictions.

高度历史

Loading altitude history...

两行轨道根数

1 25162U 98008A 26194.54743061 -.00000061 00000-0 27615-3 0 9995
2 25162 52.0033 274.1136 0001074 24.3860 80.4523 12.38234119292199
Epoch: Jul 13, 2026 • Age: 17 hours

当前状态

高度 1521.6 km
远地点 / 近地点 N/A
速度 7.10 km/s
星下点 -27.00°S, 130.69°W
发射日期 Feb 14, 1998
运行时间 28.4 years
类型 communications

技术详情

分类 Payload
质量 450.00 kg
干质量 380.00 kg
总质量 450.00 kg
长度 1.50 m
直径 0.60 m
跨度 12.00 m
形状 Box + 2 Pan
制造商 LOR
平台类型 LS-400
阶段状态 In Orbit
所有者/国家 GLOBT/US

Most Searched